Flag for Canada Weather past 2 weeks in Niagara Falls, Ontario, Canada

Now
19 °F

Overcast.


Feels Like: 2 °F
Forecast: 0 / 20 °F
Wind: 22 mph from West

Location: Niagara Falls International Airport

Current Time: Mar 6, 2015 at 4:16:49 PM

Latest Report: Mar 6, 2015 at 3:53 PM


Visibility: 10 mi

Pressure: 30.40 "Hg

Humidity: 62%

Dew point: 8 °F

Location of Niagara FallsLocation

Historic Weather in Niagara Falls — Graph

°F

Niagara Falls temperature yesterday

Maximum temperature yesterday: 20 °F (at 12:02 AM)
Minimum temperature yesterday: 3 °F (at 11:53 PM)
Average temperature yesterday: 10 °F

Past Weeks' High & Low Weather Summary

 TemperatureHumidityPressure
High37 °F (Mar 3, 7:53 PM)96% (Feb 22, 2:03 AM)30.86 "Hg (Feb 22, 2:03 AM)
Low-8 °F (Feb 20, 5:59 AM)42% (Feb 24, 2:53 PM)29.60 "Hg (Mar 3, 6:53 PM)
Average12 °F73%30.27 "Hg
* Reported Feb 19 2:53 PM — Mar 6 2:53 PM, Niagara Falls, Weather by CustomWeather, © 2015

Note: Actual official high and low records may vary slightly from our data, if they occured in-between our weather recording intervals... More about our weather records

Advertising

Niagara Falls weather history for previous 24 hours

 ConditionsComfort  
Time TempWeatherWind HumidityBarometerVisibility
2:53 PM
Fri, Mar 6
19 °FPartly sunny.24 mph59%30.44 "Hg10 mi
1:53 PM18 °FPartly sunny.23 mph59%30.47 "Hg10 mi
12:53 PM17 °FPartly sunny.23 mph59%30.51 "Hg10 mi
11:53 AM15 °FPassing clouds.20 mph61%30.55 "Hg10 mi
10:53 AM12 °FPassing clouds.14 mph64%30.55 "Hg10 mi
9:53 AM10 °FSunny.16 mph64%30.57 "Hg10 mi
8:53 AM7 °FSunny.17 mph73%30.58 "Hg10 mi
7:53 AM4 °FSunny.10 mph76%30.58 "Hg10 mi
7:01 AM1 °FPassing clouds.9 mph83%30.50 "Hg10 mi
5:53 AM1 °FClear.9 mph83%30.58 "Hg10 mi
3:53 AM2 °FClear.6 mph80%30.56 "Hg10 mi
2:53 AM2 °FClear.10 mph80%30.57 "Hg10 mi
1:53 AM-1 °FClear.8 mph82%30.58 "Hg10 mi
12:53 AM0 °FClear.8 mph79%30.56 "Hg10 mi
11:53 PM
Thu, Mar 5
3 °FClear.9 mph69%30.57 "Hg10 mi
10:53 PM5 °FPassing clouds.12 mph66%30.57 "Hg10 mi
9:53 PM6 °FPassing clouds.10 mph63%30.55 "Hg10 mi
8:53 PM8 °FPassing clouds.13 mph57%30.53 "Hg10 mi
7:53 PM9 °FPassing clouds.8 mph66%30.50 "Hg10 mi
6:53 PM8 °FPassing clouds.8 mph60%30.47 "Hg10 mi
5:53 PM11 °FPartly sunny.8 mph56%30.44 "Hg10 mi
4:53 PM12 °FLight snow. Partly sunny.9 mph58%30.42 "Hg10 mi
Weather by CustomWeather, © 2015

See weather overviewHow to use our weather pages